TimeCST,TemperatureF,Dew PointF,Humidity,Sea Level PressureIn,VisibilityMPH,Wind Direction,Wind SpeedMPH,Gust SpeedMPH,PrecipitationIn,Events,Conditions,WindDirDegrees,DateUTC
12:15 AM,33.8,28.4,81,30.41,10.0,WSW,3.5,-,N/A,,Overcast,250,2012-02-03 06:15:00
12:35 AM,33.8,28.4,81,30.41,10.0,Calm,Calm,-,N/A,,Overcast,0,2012-02-03 06:35:00
12:55 AM,33.8,28.4,81,30.41,10.0,Calm,Calm,-,N/A,,Overcast,0,2012-02-03 06:55:00
1:15 AM,33.8,28.4,81,30.42,10.0,Calm,Calm,-,N/A,,Overcast,0,2012-02-03 07:15:00
1:35 AM,33.8,28.4,81,30.42,10.0,Calm,Calm,-,N/A,,Overcast,0,2012-02-03 07:35:00
1:55 AM,33.8,28.4,81,30.43,10.0,Calm,Calm,-,N/A,,Overcast,0,2012-02-03 07:55:00
2:15 AM,33.8,28.4,81,30.44,10.0,Calm,Calm,-,N/A,,Overcast,0,2012-02-03 08:15:00
2:35 AM,33.8,28.4,81,30.44,10.0,Calm,Calm,-,N/A,,Overcast,0,2012-02-03 08:35:00
2:55 AM,33.8,28.4,81,30.44,10.0,WSW,4.6,-,N/A,,Overcast,240,2012-02-03 08:55:00
3:15 AM,33.8,28.4,81,30.44,10.0,WSW,4.6,-,N/A,,Overcast,250,2012-02-03 09:15:00
3:35 AM,33.8,28.4,81,30.44,10.0,West,3.5,-,N/A,,Overcast,260,2012-02-03 09:35:00
4:15 AM,33.8,28.4,81,30.45,10.0,Calm,Calm,-,N/A,,Overcast,0,2012-02-03 10:15:00
4:35 AM,33.8,28.4,81,30.46,10.0,Calm,Calm,-,N/A,,Overcast,0,2012-02-03 10:35:00
4:55 AM,33.8,28.4,81,30.45,10.0,Calm,Calm,-,N/A,,Overcast,0,2012-02-03 10:55:00
5:15 AM,32.0,30.2,93,30.45,10.0,Calm,Calm,-,N/A,,Overcast,0,2012-02-03 11:15:00
5:35 AM,32.0,28.4,87,30.47,10.0,Calm,Calm,-,N/A,,Overcast,0,2012-02-03 11:35:00
5:55 AM,32.0,28.4,87,30.46,10.0,Calm,Calm,-,N/A,,Overcast,0,2012-02-03 11:55:00
6:15 AM,32.0,30.2,93,30.47,10.0,Calm,Calm,-,N/A,,Overcast,0,2012-02-03 12:15:00
6:35 AM,32.0,28.4,87,30.47,10.0,WSW,3.5,-,N/A,,Overcast,250,2012-02-03 12:35:00
6:55 AM,32.0,28.4,87,30.48,10.0,West,4.6,-,N/A,,Overcast,280,2012-02-03 12:55:00
7:15 AM,32.0,28.4,87,30.47,10.0,West,4.6,-,N/A,,Overcast,270,2012-02-03 13:15:00
7:55 AM,33.8,28.4,81,30.47,10.0,NNW,4.6,-,N/A,,Overcast,340,2012-02-03 13:55:00
8:15 AM,33.8,30.2,87,30.47,10.0,Calm,Calm,-,N/A,,Overcast,0,2012-02-03 14:15:00
8:35 AM,33.8,30.2,87,30.47,10.0,Calm,Calm,-,N/A,,Overcast,0,2012-02-03 14:35:00
8:55 AM,33.8,28.4,81,30.48,10.0,West,3.5,-,N/A,,Overcast,280,2012-02-03 14:55:00
9:15 AM,33.8,28.4,81,30.49,10.0,NNW,3.5,-,N/A,,Overcast,330,2012-02-03 15:15:00
9:35 AM,33.8,28.4,81,30.50,10.0,NW,3.5,-,N/A,,Overcast,310,2012-02-03 15:35:00
10:15 AM,33.8,30.2,87,30.49,10.0,Calm,Calm,-,N/A,,Overcast,0,2012-02-03 16:15:00
10:35 AM,35.6,30.2,81,30.49,10.0,North,4.6,-,N/A,,Overcast,360,2012-02-03 16:35:00
10:55 AM,35.6,28.4,75,30.49,10.0,North,4.6,-,N/A,,Overcast,350,2012-02-03 16:55:00
11:15 AM,35.6,28.4,75,30.49,10.0,North,5.8,-,N/A,,Overcast,360,2012-02-03 17:15:00
11:35 AM,37.4,28.4,70,30.49,10.0,North,5.8,-,N/A,,Overcast,10,2012-02-03 17:35:00
11:55 AM,37.4,26.6,65,30.48,10.0,North,4.6,-,N/A,,Overcast,360,2012-02-03 17:55:00
12:15 PM,37.4,26.6,65,30.47,10.0,North,6.9,-,N/A,,Overcast,350,2012-02-03 18:15:00
12:35 PM,37.4,26.6,65,30.47,10.0,North,5.8,-,N/A,,Overcast,360,2012-02-03 18:35:00
12:55 PM,37.4,24.8,60,30.45,10.0,Calm,Calm,-,N/A,,Overcast,0,2012-02-03 18:55:00
1:15 PM,37.4,24.8,60,30.45,10.0,Calm,Calm,-,N/A,,Overcast,0,2012-02-03 19:15:00
1:35 PM,39.2,24.8,56,30.44,10.0,North,4.6,-,N/A,,Scattered Clouds,10,2012-02-03 19:35:00
1:55 PM,39.2,24.8,56,30.43,10.0,West,3.5,-,N/A,,Clear,270,2012-02-03 19:55:00
2:15 PM,39.2,24.8,56,30.43,10.0,SE,5.8,-,N/A,,Clear,140,2012-02-03 20:15:00
2:35 PM,39.2,24.8,56,30.43,10.0,SE,4.6,-,N/A,,Partly Cloudy,140,2012-02-03 20:35:00
2:55 PM,37.4,26.6,65,30.44,10.0,SSE,8.1,-,N/A,,Partly Cloudy,160,2012-02-03 20:55:00
3:15 PM,37.4,26.6,65,30.44,10.0,South,8.1,-,N/A,,Clear,170,2012-02-03 21:15:00
3:35 PM,37.4,26.6,65,30.44,10.0,SE,8.1,-,N/A,,Clear,140,2012-02-03 21:35:00
3:55 PM,35.6,26.6,70,30.44,10.0,South,5.8,-,N/A,,Clear,170,2012-02-03 21:55:00
4:15 PM,35.6,24.8,65,30.44,10.0,South,5.8,-,N/A,,Clear,170,2012-02-03 22:15:00
4:35 PM,35.6,24.8,65,30.44,10.0,South,5.8,-,N/A,,Clear,180,2012-02-03 22:35:00
4:55 PM,33.8,24.8,70,30.45,10.0,SSW,3.5,-,N/A,,Clear,200,2012-02-03 22:55:00
5:15 PM,33.8,24.8,70,30.45,10.0,SW,6.9,-,N/A,,Clear,220,2012-02-03 23:15:00
5:35 PM,32.0,24.8,75,30.45,10.0,SW,3.5,-,N/A,,Clear,230,2012-02-03 23:35:00
5:55 PM,30.2,26.6,86,30.46,10.0,Calm,Calm,-,N/A,,Clear,0,2012-02-03 23:55:00
6:15 PM,30.2,26.6,86,30.46,10.0,Calm,Calm,-,N/A,,Clear,0,2012-02-04 00:15:00
6:35 PM,30.2,26.6,86,30.46,10.0,Calm,Calm,-,N/A,,Clear,0,2012-02-04 00:35:00
6:55 PM,30.2,26.6,86,30.45,10.0,WSW,3.5,-,N/A,,Clear,250,2012-02-04 00:55:00
7:15 PM,28.4,24.8,86,30.45,10.0,Calm,Calm,-,N/A,,Clear,0,2012-02-04 01:15:00
7:35 PM,28.4,26.6,93,30.45,10.0,Calm,Calm,-,N/A,,Clear,0,2012-02-04 01:35:00
7:55 PM,28.4,26.6,93,30.45,10.0,Calm,Calm,-,N/A,,Clear,0,2012-02-04 01:55:00
8:15 PM,26.6,24.8,93,30.44,9.0,Calm,Calm,-,N/A,,Clear,0,2012-02-04 02:15:00
8:35 PM,24.8,23.0,93,30.44,8.0,Calm,Calm,-,N/A,,Clear,0,2012-02-04 02:35:00
8:55 PM,24.8,24.8,100,30.44,8.0,West,3.5,-,N/A,,Clear,280,2012-02-04 02:55:00
9:15 PM,26.6,23.0,86,30.44,7.0,WNW,3.5,-,N/A,,Clear,290,2012-02-04 03:15:00
9:35 PM,26.6,24.8,93,30.44,7.0,WNW,3.5,-,N/A,,Clear,290,2012-02-04 03:35:00
9:55 PM,26.6,24.8,93,30.43,7.0,Calm,Calm,-,N/A,,Clear,0,2012-02-04 03:55:00
10:15 PM,26.6,24.8,93,30.43,7.0,West,3.5,-,N/A,,Clear,270,2012-02-04 04:15:00
10:35 PM,24.8,23.0,93,30.42,7.0,West,3.5,-,N/A,,Clear,270,2012-02-04 04:35:00
10:55 PM,26.6,24.8,93,30.42,7.0,Calm,Calm,-,N/A,,Clear,0,2012-02-04 04:55:00
11:15 PM,24.8,24.8,100,30.41,6.0,WSW,3.5,-,N/A,,Clear,250,2012-02-04 05:15:00
11:35 PM,24.8,24.8,100,30.41,6.0,Calm,Calm,-,N/A,,Clear,0,2012-02-04 05:35:00
11:55 PM,24.8,21.2,86,30.40,5.0,Calm,Calm,-,N/A,,Clear,0,2012-02-04 05:55:00